ERS 2 DEB, 35391

Orbit data source: Space-Track

ERS 2 DEB, 35391 is space debris in SSO originally from a launch on Fri, 21 Apr 1995 UTC launched from the French Guiana (FRGUI). Debris objects in space refer to the collection of defunct objects orbiting the Earth. Examples of debris include non-operational satellites, rocket bodies, and fragments generated from explosions, collisions, or faulty payload assembly.

Loading next visibility...
Identifier
35391, 1995-021E
Orbit
SSO
Country
Flag of ESAESA
Related business
Manufacturer
Unknown
Mission
Spacecraft
Bus & Motor
Unknown
Mass
Unknown
Launch date (UTC)
1995-04-21 (31 years ago)
Launch vehicle
Unknown
Launch site
French Guiana (FRGUI)
Object type
Payload
Rocket body
Debris
Shape & HBR
Unknown shape, 0.1 m
Radar Cross Section
Medium (>0.1 m² and <1 m²)

Expand to show TLE details & history
Last TLE update: 3 days ago

TLE from 3 days ago
0 ERS 2 DEB
1 35391U 95021E   26170.91530003  .00001460  00000-0  39557-3 0  9998
2 35391  98.6150 154.2695 0006760 101.2988 288.1386 14.49182880998087
Epoch: 2026-06-19T21:58Z
TLE epoch observation values (Epoch: 2026-06-19T21:58:01.922Z)
Latitude
29.04913°
Longitude
-88.17715°
Altitude
730.457 km
Speed
7.493 km/s
True Right ascension
09h 57m 52s
True Declination
28° 54' 10"
Sunlit
Object was in daylight at epoch
Visualization orbit readout
Latitude
Unknown
Longitude
Unknown
Altitude
Unknown
Speed
Unknown
Apparent Right ascension
Unknown
Apparent Declination
Unknown
Sunlit
N/A
Visualization observer readout
Local Sidereal Time
23:08:14
Azimuth
Unknown
Elevation
Unknown
Doppler factor
Unknown
Orbital elements
Apogee altitude
730.236 km
Perigee altitude
720.632 km
Semi-major axis
7,103.571 km
Eccentricity
0.00068
Inclination
98.615°
RAAN
154.2695°
Arg. of periapsis
101.2988°
True anomaly
288.06497°
Mean anomaly
288.1386°
Eccentric anomaly
288.10179°
Mean motion
3.62517 °/min
Orbital period
99.31 mins
BSTAR
0.00039557
Loading maneuver chart data...
Computing Atmospheric mass density...
Loading historical data...
Loading historical data...
Loading historical data...
Loading historical data...
Loading historical data...
Loading historical data...
Loading historical data...

Documentation

Showing up to 5 results
|